Le nostre stazioni meteo in Italia

Pubblicità
Il mio iltempo24.it
Messina, Italia (16420): Temperatura & dewpoint: 10.07.2018 20:00:00 - 16.07.2018 20:00:00 (CEST)Messina, Italia (16420): velocità del vento: 10.07.2018 20:00:00 - 16.07.2018 20:00:00 (CEST)Messina, Italia (16420): direzione del vento: 10.07.2018 20:00:00 - 16.07.2018 20:00:00 (CEST)Messina, Italia (16420): reduced air pressure: 10.07.2018 20:00:00 - 16.07.2018 20:00:00 (CEST)Messina, Italia (16420): visibility: 10.07.2018 20:00:00 - 16.07.2018 20:00:00 (CEST)Messina, Italia (16420): ore di luce: 10.07.2018 20:00:00 - 16.07.2018 20:00:00 (CEST)
Data & Tempo tt [°C] td [°C] ff [km/h] ff [kn] dd ppp [hPa] vv [km] sd [min]
16.07.2018 20:00:00 28,8 23,7 13 7 N 1014,2 18 12
16.07.2018 19:00:00 29,6 22,8 13 7 NNE 1012,9 16 60
16.07.2018 18:00:00 31,4 21,0 11 6 NE 1012,9 16 60
16.07.2018 17:00:00 30,6 23,5 15 8 NE 1013,1 14 60
16.07.2018 16:00:00 31,6 22,0 15 8 NE 1013,2 14 60
16.07.2018 15:00:00 31,4 22,4 9 5 NE 1013,8 12 60
16.07.2018 14:00:00 30,4 23,3 15 8 NE 1014,4 12 60
16.07.2018 13:00:00 29,8 22,8 15 8 ENE 1015,7 12 60
16.07.2018 12:00:00 28,4 21,7 13 7 NE 1016,1 10 60
16.07.2018 11:00:00 28,4 23,5 13 7 N 1015,1 10 60
16.07.2018 10:00:00 27,4 23,4 13 7 NO 1015,1 10 60
16.07.2018 09:00:00 27,2 22,8 11 6 NNO 1014,2 12 60
16.07.2018 08:00:00 26,4 22,7 9 5 NNE 1013,7 12 48
16.07.2018 07:00:00 26,0 24,0 5 3 NNE 1013,8 10 0
16.07.2018 06:00:00 26,0 24,2 5 3 NNE 1013,8 10 -
16.07.2018 05:00:00 26,0 23,9 11 6 N 1014,3 10 -
16.07.2018 04:00:00 26,0 23,9 8 4 NNO 1014,3 10 -
16.07.2018 03:00:00 26,2 24,1 13 7 N 1014,3 10 -
16.07.2018 02:00:00 26,6 24,3 9 5 NO 1014,3 10 -
16.07.2018 01:00:00 26,8 24,5 15 8 NO 1014,2 10 -
16.07.2018 00:00:00 26,8 24,7 11 6 OSO 1014,2 10 -
15.07.2018 23:00:00 26,8 24,3 13 7 E 1014,2 10 -
15.07.2018 22:00:00 27,0 25,0 9 5 NE 1014,1 10 -
15.07.2018 21:00:00 27,4 25,0 11 6 NE 1013,4 10 -
15.07.2018 20:00:00 27,6 24,3 5 3 NE 1013,3 10 0
15.07.2018 19:00:00 27,8 24,0 9 5 NE 1013,2 10 0
15.07.2018 18:00:00 28,8 23,2 9 5 ONO 1013,2 10 24
15.07.2018 17:00:00 29,6 23,8 11 6 NNE 1013,1 10 60
15.07.2018 16:00:00 29,2 23,2 13 7 N 1013,2 10 60
15.07.2018 15:00:00 29,4 23,4 13 7 N 1013,2 10 60
15.07.2018 14:00:00 29,6 23,6 15 8 N 1013,4 10 60
15.07.2018 13:00:00 30,2 23,1 11 6 N 1013,4 10 60
15.07.2018 12:00:00 29,6 23,1 9 5 N 1013,5 10 60
15.07.2018 11:00:00 28,6 23,3 11 6 N 1013,6 10 60
15.07.2018 10:00:00 27,8 23,6 13 7 NNO 1013,4 10 60
15.07.2018 09:00:00 27,4 23,2 9 5 NNO 1013,3 10 60
15.07.2018 08:00:00 26,8 23,5 11 6 NNE 1013,0 12 48
15.07.2018 07:00:00 26,0 23,1 9 5 NNO 1012,3 16 6
15.07.2018 06:00:00 26,0 23,3 15 8 NNO 1012,3 20 -
15.07.2018 05:00:00 26,0 23,1 11 6 NNE 1012,6 20 -
15.07.2018 04:00:00 24,2 22,6 2 1 N 1013,0 20 -
15.07.2018 03:00:00 25,0 22,3 4 2 N 1013,3 20 -
15.07.2018 02:00:00 25,2 24,0 9 5 OSO 1014,0 20 -
15.07.2018 01:00:00 26,0 24,6 11 6 SO 1014,0 20 -
15.07.2018 00:00:00 26,0 24,8 11 6 SO 1014,0 20 -
14.07.2018 23:00:00 26,0 24,0 8 4 OSO 1014,9 20 -
14.07.2018 22:00:00 26,6 24,2 9 5 SO 1014,9 20 -
14.07.2018 21:00:00 27,0 24,5 13 7 SSO 1014,9 20 -
14.07.2018 20:00:00 27,8 24,0 18 10 SSO 1015,0 20 0
14.07.2018 19:00:00 29,0 23,9 11 6 SSO 1015,0 20 60
14.07.2018 18:00:00 30,6 19,6 8 4 S 1015,0 20 60
14.07.2018 17:00:00 31,2 17,5 8 4 E 1015,1 20 60
14.07.2018 16:00:00 31,6 16,4 15 8 NE 1015,3 20 60
14.07.2018 15:00:00 31,4 19,1 15 8 NE 1016,0 20 60
14.07.2018 14:00:00 31,0 19,7 16 9 NE 1016,2 20 60
14.07.2018 13:00:00 31,0 17,7 11 6 NE 1016,3 20 60
14.07.2018 12:00:00 30,4 20,0 16 9 NE 1016,4 20 60
14.07.2018 11:00:00 30,0 18,1 13 7 NE 1016,4 20 60
14.07.2018 10:00:00 29,0 17,2 13 7 NE 1016,2 20 60
14.07.2018 09:00:00 28,4 17,0 8 4 NE 1016,2 20 60
14.07.2018 08:00:00 27,2 15,3 0 0 N 1016,2 20 60
14.07.2018 07:00:00 25,2 16,6 0 0 N 1016,0 20 12
14.07.2018 06:00:00 25,0 21,1 4 2 NNE 1016,2 20 -
14.07.2018 05:00:00 25,2 20,5 5 3 NNE 1016,2 10 -
14.07.2018 04:00:00 26,2 17,0 8 4 N 1016,2 16 -
14.07.2018 03:00:00 26,0 17,4 5 3 N 1016,2 16 -
14.07.2018 02:00:00 26,0 18,2 8 4 N 1016,2 16 -
14.07.2018 01:00:00 26,4 22,9 4 2 N 1016,2 16 -
14.07.2018 00:00:00 26,4 21,4 5 3 N 1016,3 16 -
13.07.2018 23:00:00 26,8 20,6 5 3 N 1016,2 16 -
13.07.2018 22:00:00 27,0 22,4 5 3 NE 1016,1 16 -
13.07.2018 21:00:00 27,8 22,7 4 2 NE 1015,5 20 -
13.07.2018 20:00:00 28,8 21,3 4 2 NE 1015,5 20 24
13.07.2018 19:00:00 31,0 19,7 5 3 NNE 1015,3 20 60
13.07.2018 18:00:00 31,2 18,9 9 5 NE 1015,4 20 60
13.07.2018 17:00:00 31,2 20,2 13 7 NE 1015,8 20 60
13.07.2018 16:00:00 30,6 21,7 15 8 NE 1016,2 20 60
13.07.2018 15:00:00 31,2 18,9 13 7 NNE 1016,2 20 60
13.07.2018 14:00:00 32,0 20,3 13 7 NE 1016,4 20 60
13.07.2018 13:00:00 31,6 19,9 15 8 NE 1016,5 20 60
13.07.2018 12:00:00 30,2 21,6 15 8 NE 1016,9 20 60
13.07.2018 11:00:00 30,8 20,1 15 8 ENE 1016,6 20 60
13.07.2018 10:00:00 30,2 16,6 11 6 NE 1016,2 20 60
13.07.2018 09:00:00 29,0 15,2 8 4 NNO 1016,3 20 60
13.07.2018 08:00:00 27,4 15,1 11 6 NNO 1016,1 20 60
13.07.2018 07:00:00 25,2 15,2 9 5 NNE 1015,8 20 6
13.07.2018 06:00:00 25,8 15,5 5 3 NNO 1015,5 20 -
13.07.2018 05:00:00 25,6 15,3 9 5 NNO 1015,7 20 -
13.07.2018 04:00:00 25,6 16,2 9 5 N 1016,1 25 -
13.07.2018 03:00:00 25,6 16,5 5 3 N 1016,2 25 -
13.07.2018 02:00:00 25,8 16,7 8 4 N 1016,2 25 -
13.07.2018 01:00:00 26,0 16,5 5 3 N 1016,2 25 -
13.07.2018 00:00:00 26,0 16,8 5 3 N 1016,2 25 -
12.07.2018 23:00:00 26,4 17,2 4 2 NNE 1016,0 20 -
12.07.2018 22:00:00 26,4 17,2 4 2 N 1015,8 25 -
12.07.2018 21:00:00 26,8 21,1 5 3 NE 1015,4 25 -
12.07.2018 20:00:00 26,8 20,4 8 4 NE 1015,2 20 12
12.07.2018 19:00:00 29,0 19,4 13 7 NE 1015,2 20 60
12.07.2018 18:00:00 29,0 20,2 13 7 NE 1015,2 20 60
12.07.2018 17:00:00 29,4 20,0 18 10 NE 1015,4 20 60
12.07.2018 16:00:00 29,8 20,1 18 10 NE 1016,0 20 60
12.07.2018 15:00:00 29,4 18,5 15 8 NE 1016,2 20 60
12.07.2018 14:00:00 30,2 11,2 15 8 N 1016,2 20 60
12.07.2018 13:00:00 30,0 12,9 11 6 N 1016,2 20 60
12.07.2018 12:00:00 29,0 18,5 9 5 NE 1016,1 20 60
12.07.2018 11:00:00 28,4 17,3 13 7 NE 1015,8 20 60
12.07.2018 10:00:00 27,2 22,6 16 9 NE 1015,4 20 60
12.07.2018 09:00:00 26,0 22,5 16 9 NE 1015,3 20 60
12.07.2018 08:00:00 25,6 21,3 9 5 N 1015,0 20 60
12.07.2018 07:00:00 25,0 19,2 11 6 NO 1014,3 18 12
12.07.2018 06:00:00 24,6 14,1 9 5 NNO 1014,3 18 -
12.07.2018 05:00:00 24,2 18,4 5 3 NNE 1014,3 15 -
12.07.2018 04:00:00 25,0 12,2 11 6 N 1014,2 15 -
12.07.2018 03:00:00 24,4 13,3 4 2 N 1014,3 15 -
12.07.2018 02:00:00 24,4 12,7 4 2 N 1014,3 15 -
12.07.2018 01:00:00 24,4 11,7 8 4 NNO 1014,3 15 -
12.07.2018 00:00:00 24,4 17,9 5 3 N 1014,3 15 -
11.07.2018 23:00:00 25,0 18,2 8 4 N 1014,3 10 -
11.07.2018 22:00:00 25,6 16,7 5 3 NNE 1014,3 15 -
11.07.2018 21:00:00 26,0 18,2 2 1 NNE 1014,0 18 -
11.07.2018 20:00:00 26,6 19,7 8 4 NE 1013,3 25 6
11.07.2018 19:00:00 28,4 16,4 8 4 NE 1012,9 25 60
11.07.2018 18:00:00 28,8 19,2 13 7 NE 1012,9 25 60
11.07.2018 17:00:00 29,4 17,6 18 10 NE 1013,1 25 60
11.07.2018 16:00:00 29,4 17,6 16 9 NE 1013,1 25 60
11.07.2018 15:00:00 28,6 16,2 15 8 NE 1013,3 25 60
11.07.2018 14:00:00 28,8 16,7 16 9 NE 1013,7 25 60
11.07.2018 13:00:00 29,2 15,7 18 10 NE 1013,7 25 60
11.07.2018 12:00:00 28,4 17,3 18 10 NE 1013,7 25 60
11.07.2018 11:00:00 28,4 17,6 11 6 NE 1013,6 20 60
11.07.2018 10:00:00 27,0 19,1 16 9 NE 1013,7 25 60
11.07.2018 09:00:00 25,6 20,4 13 7 NE 1013,7 20 60
11.07.2018 08:00:00 24,2 21,1 9 5 NE 1013,7 20 60
11.07.2018 07:00:00 23,0 18,5 4 2 NNE 1013,6 20 18
11.07.2018 06:00:00 22,2 19,0 2 1 N 1013,6 16 -
11.07.2018 05:00:00 22,6 18,8 2 1 NNO 1013,7 12 -
11.07.2018 04:00:00 22,4 18,0 4 2 NO 1013,8 12 -
11.07.2018 03:00:00 22,6 19,2 4 2 NO 1014,1 12 -
11.07.2018 02:00:00 23,0 19,6 4 2 N 1014,4 12 -
11.07.2018 01:00:00 23,2 20,2 0 0 N 1014,3 12 -
11.07.2018 00:00:00 23,6 20,0 2 1 NNO 1014,3 12 -
10.07.2018 23:00:00 24,2 20,5 2 1 E 1014,3 10 -
10.07.2018 22:00:00 25,0 20,7 4 2 N 1014,2 12 -
10.07.2018 21:00:00 25,6 19,7 5 3 NO 1013,5 16 -
10.07.2018 20:00:00 26,0 18,2 4 2 ENE 1013,4 20 6

tt = Temperatura
td = dewpoint
ff = velocità del vento
dd = direzione del vento
ppp = reduced air pressure
vv = visibility
sd = ore di luce

Stazioni seguenti

WeatherPro
AMSI
MeteoEarth